DELTA 1 R/B, 1983

Orbit data source: Space-Track

DELTA 1 R/B, 1983 is space debris in SSO originally from a launch on Thu, 03 Feb 1966 UTC launched from the Air Force Eastern Test Range (AFETR). Debris objects in space refer to the collection of defunct objects orbiting the Earth. Examples of debris include non-operational satellites, rocket bodies, and fragments generated from explosions, collisions, or faulty payload assembly.

Loading next visibility...
Identifier
1983, 1966-008B
Orbit
SSO
Country
Flag of USUS
Related business
Manufacturer
ABL
Mission
Spacecraft
Bus & Motor
ALTAIR, Unknown motor
Mass
60 kg wet, 60 kg dry
Launch date (UTC)
1966-02-03 (60 years ago)
Launch vehicle
Unknown
Launch site
Air Force Eastern Test Range (AFETR)
Object type
Payload
Rocket body
Debris
Shape & HBR
Unknown
Radar Cross Section
Medium (>0.1 m² and <1 m²)

Expand to show TLE details & history
Last TLE update: 19 hours ago

TLE from 19 hours ago
0 DELTA 1 R/B
1 01983U 66008B   25348.84127968  .00001492  00000-0  26037-3 0  9995
2 01983  98.0326 264.5904 0063454 321.2935  38.3731 14.68167745145585
Epoch: 2025-12-14T20:11Z
TLE epoch observation values (Epoch: 2025-12-14T20:11:26.564Z)
Latitude
-0.00007°
Longitude
-122.01868°
Altitude
634.981 km
Speed
7.559 km/s
True Right ascension
17h 38m 21s
True Declination
0° 00' 00"
Sunlit
Object was in daylight at epoch
Visualization orbit readout
Latitude
Unknown
Longitude
Unknown
Altitude
Unknown
Speed
Unknown
Apparent Right ascension
Unknown
Apparent Declination
Unknown
Sunlit
N/A
Visualization observer readout
Local Sidereal Time
13:23:53
Azimuth
Unknown
Elevation
Unknown
Doppler factor
Unknown
Orbital elements
Apogee altitude
708.671 km
Perigee altitude
619.301 km
Semi-major axis
7,042.123 km
Eccentricity
0.00635
Inclination
98.0326°
RAAN
264.5904°
Arg. of periapsis
321.2935°
True anomaly
38.82731°
Mean anomaly
38.3731°
Eccentric anomaly
38.59992°
Mean motion
3.67272 °/min
Orbital period
98.02 mins
BSTAR
0.00026037
Loading maneuver chart data...
Computing Atmospheric mass density...
Loading historical data...
Loading historical data...
Loading historical data...
Loading historical data...
Loading historical data...
Loading historical data...
Loading historical data...
Other satellites on launch #8 in the year 1966 (1966-02-03 UTC)

Documentation

Showing up to 5 results
|